When you browse on this site, cookies collect data to enhance your experience and personalize the content and advertising you see.
Visit our Privacy Policy to learn more. By continuing to use the site, you agree to this use of cookies and data.
EN

Hourly Weather Abony

Today, 12 July, Sunday

Time Temperature Precipitation Wind Pressure Humidity
00:00 +15°C° 0.9 mm 5 mps 755 mmHg 90%
01:00 +16°C° 0 mm 3 mps 755 mmHg 92%
02:00 +16°C° 0.9 mm 3 mps 755 mmHg 92%
03:00 +16°C° 0.9 mm 3 mps 755 mmHg 92%
04:00 +14°C° 0.9 mm 3 mps 755 mmHg 93%
05:00 +16°C° 0 mm 3 mps 756 mmHg 90%
06:00 +16°C° 0 mm 3 mps 756 mmHg 88%
07:00 +16°C° 0 mm 2 mps 757 mmHg 85%
08:00 +16°C° 0 mm 2 mps 757 mmHg 83%
09:00 +17°C° 0 mm 2 mps 758 mmHg 80%
10:00 +17°C° 0 mm 2 mps 758 mmHg 78%
11:00 +17°C° 0 mm 2 mps 758 mmHg 75%
12:00 +18°C° 0 mm 2 mps 758 mmHg 72%
13:00 +18°C° 0 mm 2 mps 758 mmHg 69%
14:00 +18°C° 0 mm 2 mps 758 mmHg 68%
15:00 +19°C° 0 mm 2 mps 758 mmHg 67%
16:00 +19°C° 0 mm 2 mps 758 mmHg 66%
17:00 +18°C° 0 mm 2 mps 758 mmHg 69%
18:00 +18°C° 0 mm 2 mps 758 mmHg 72%
19:00 +18°C° 0 mm 1 mps 758 mmHg 75%
20:00 +18°C° 0 mm 1 mps 758 mmHg 75%
21:00 +16°C° 0 mm 1 mps 758 mmHg 75%
22:00 +15°C° 0 mm 1 mps 758 mmHg 75%
23:00 +15°C° 0 mm 1 mps 758 mmHg 76%

Tomorrow, 13 July, Monday

Time Temperature Precipitation Wind Pressure Humidity
00:00 +15°C° 0 mm 2 mps 759 mmHg 77%
01:00 +14°C° 0 mm 2 mps 759 mmHg 78%
02:00 +14°C° 0 mm 2 mps 758 mmHg 80%
03:00 +14°C° 0 mm 1 mps 758 mmHg 81%
04:00 +13°C° 0 mm 1 mps 758 mmHg 82%
05:00 +15°C° 0 mm 2 mps 758 mmHg 77%
06:00 +16°C° 0 mm 2 mps 758 mmHg 72%
07:00 +18°C° 0 mm 2 mps 759 mmHg 67%
08:00 +19°C° 0 mm 3 mps 758 mmHg 63%
09:00 +20°C° 0 mm 3 mps 758 mmHg 59%
10:00 +21°C° 0 mm 3 mps 758 mmHg 55%
11:00 +22°C° 0 mm 3 mps 758 mmHg 54%
12:00 +23°C° 0 mm 2 mps 757 mmHg 53%
13:00 +23°C° 0 mm 2 mps 757 mmHg 52%
14:00 +23°C° 0 mm 2 mps 757 mmHg 52%
15:00 +23°C° 0 mm 2 mps 756 mmHg 53%
16:00 +23°C° 0 mm 2 mps 756 mmHg 54%
17:00 +21°C° 0 mm 2 mps 756 mmHg 59%
18:00 +20°C° 0 mm 2 mps 756 mmHg 65%
19:00 +20°C° 0 mm 1 mps 756 mmHg 70%
20:00 +19°C° 0 mm 1 mps 756 mmHg 70%
21:00 +18°C° 0 mm 1 mps 756 mmHg 71%
22:00 +16°C° 0 mm 1 mps 756 mmHg 71%
23:00 +16°C° 0 mm 1 mps 756 mmHg 73%

Day after tomorrow, 14 July, Tuesday

Time Temperature Precipitation Wind Pressure Humidity
00:00 +15°C° 0 mm 1 mps 756 mmHg 74%
01:00 +15°C° 0 mm 1 mps 756 mmHg 76%
02:00 +15°C° 0 mm 2 mps 756 mmHg 78%
03:00 +14°C° 0 mm 2 mps 755 mmHg 81%
04:00 +14°C° 0 mm 2 mps 755 mmHg 83%
05:00 +15°C° 0 mm 2 mps 755 mmHg 79%
06:00 +17°C° 0 mm 2 mps 755 mmHg 74%
07:00 +18°C° 0 mm 3 mps 756 mmHg 70%
08:00 +19°C° 0 mm 3 mps 755 mmHg 65%
09:00 +21°C° 0 mm 3 mps 755 mmHg 59%
10:00 +22°C° 0 mm 3 mps 755 mmHg 53%
11:00 +24°C° 0 mm 3 mps 755 mmHg 51%
12:00 +25°C° 0 mm 3 mps 755 mmHg 49%
13:00 +25°C° 0 mm 3 mps 754 mmHg 47%
14:00 +25°C° 0 mm 3 mps 754 mmHg 47%
15:00 +25°C° 0 mm 2 mps 754 mmHg 47%
16:00 +25°C° 0 mm 2 mps 753 mmHg 47%
17:00 +24°C° 0 mm 2 mps 753 mmHg 53%
18:00 +23°C° 0 mm 1 mps 753 mmHg 59%
19:00 +21°C° 0 mm 1 mps 753 mmHg 64%
20:00 +20°C° 0 mm 1 mps 753 mmHg 67%
21:00 +19°C° 0 mm 1 mps 753 mmHg 69%
22:00 +16°C° 0 mm 0 mps 753 mmHg 71%
23:00 +16°C° 0 mm 0 mps 753 mmHg 72%

15 July, Wednesday

Time Temperature Precipitation Wind Pressure Humidity
00:00 +15°C° 0 mm 0 mps 753 mmHg 74%
01:00 +15°C° 0 mm 0 mps 753 mmHg 75%
02:00 +15°C° 0 mm 0 mps 753 mmHg 77%
03:00 +14°C° 0 mm 0 mps 753 mmHg 79%
04:00 +14°C° 0 mm 0 mps 753 mmHg 81%
05:00 +16°C° 0 mm 0 mps 753 mmHg 76%
06:00 +17°C° 0 mm 0 mps 753 mmHg 72%
07:00 +19°C° 0 mm 0 mps 753 mmHg 67%
08:00 +20°C° 0 mm 0 mps 753 mmHg 63%
09:00 +22°C° 0 mm 0 mps 753 mmHg 58%
10:00 +23°C° 0 mm 0 mps 753 mmHg 54%
11:00 +24°C° 0 mm 0 mps 753 mmHg 51%
12:00 +26°C° 0 mm 1 mps 753 mmHg 47%
13:00 +27°C° 0 mm 1 mps 753 mmHg 44%
14:00 +27°C° 0 mm 1 mps 752 mmHg 44%
15:00 +27°C° 0 mm 1 mps 752 mmHg 44%
16:00 +27°C° 0 mm 1 mps 752 mmHg 44%
17:00 +26°C° 0 mm 1 mps 751 mmHg 49%
18:00 +24°C° 0 mm 1 mps 751 mmHg 54%
19:00 +23°C° 0 mm 1 mps 751 mmHg 59%
20:00 +22°C° 0 mm 1 mps 751 mmHg 60%
21:00 +21°C° 0 mm 1 mps 752 mmHg 61%
22:00 +20°C° 0 mm 1 mps 752 mmHg 62%
23:00 +20°C° 0 mm 1 mps 752 mmHg 63%

16 July, Thursday

Time Temperature Precipitation Wind Pressure Humidity
00:00 +19°C° 0 mm 2 mps 752 mmHg 64%
01:00 +18°C° 0 mm 2 mps 752 mmHg 65%
02:00 +18°C° 0 mm 2 mps 751 mmHg 66%
03:00 +18°C° 0 mm 2 mps 751 mmHg 67%
04:00 +17°C° 0 mm 2 mps 751 mmHg 68%
05:00 +19°C° 0 mm 2 mps 751 mmHg 68%
06:00 +20°C° 0 mm 3 mps 752 mmHg 68%
07:00 +21°C° 0 mm 4 mps 752 mmHg 68%
08:00 +20°C° 0 mm 4 mps 752 mmHg 70%
09:00 +20°C° 0 mm 3 mps 752 mmHg 73%
10:00 +19°C° 0 mm 3 mps 752 mmHg 75%
11:00 +20°C° 0 mm 4 mps 752 mmHg 72%
12:00 +20°C° 0 mm 4 mps 752 mmHg 69%
13:00 +21°C° 0 mm 4 mps 752 mmHg 66%
14:00 +21°C° 0 mm 4 mps 751 mmHg 67%
15:00 +20°C° 0 mm 4 mps 751 mmHg 68%
16:00 +20°C° 0 mm 4 mps 751 mmHg 69%
17:00 +20°C° 0 mm 4 mps 751 mmHg 70%
18:00 +20°C° 0 mm 4 mps 751 mmHg 71%
19:00 +20°C° 0 mm 4 mps 751 mmHg 73%
20:00 +19°C° 0 mm 4 mps 751 mmHg 73%
21:00 +18°C° 0 mm 4 mps 751 mmHg 74%
22:00 +17°C° 0 mm 4 mps 751 mmHg 75%
23:00 +17°C° 0 mm 4 mps 751 mmHg 78%

17 July, Friday

Time Temperature Precipitation Wind Pressure Humidity
00:00 +15°C° 0 mm 5 mps 751 mmHg 81%
01:00 +14°C° 0 mm 5 mps 751 mmHg 85%
02:00 +14°C° 0 mm 5 mps 751 mmHg 86%
03:00 +14°C° 0 mm 4 mps 751 mmHg 87%
04:00 +14°C° 0 mm 4 mps 751 mmHg 88%
05:00 +15°C° 0 mm 5 mps 751 mmHg 82%
06:00 +16°C° 0 mm 6 mps 751 mmHg 76%
07:00 +18°C° 0 mm 7 mps 751 mmHg 70%
08:00 +20°C° 0 mm 7 mps 751 mmHg 67%
09:00 +20°C° 0 mm 7 mps 751 mmHg 65%
10:00 +21°C° 0 mm 7 mps 751 mmHg 62%
11:00 +22°C° 0 mm 7 mps 751 mmHg 60%
12:00 +23°C° 0 mm 8 mps 751 mmHg 57%
13:00 +24°C° 0 mm 8 mps 751 mmHg 55%
14:00 +24°C° 0.1 mm 7 mps 751 mmHg 55%
15:00 +24°C° 0.1 mm 7 mps 751 mmHg 55%
16:00 +24°C° 0.1 mm 7 mps 751 mmHg 55%
17:00 +23°C° 0 mm 6 mps 751 mmHg 60%
18:00 +21°C° 0 mm 5 mps 751 mmHg 65%
19:00 +20°C° 0 mm 4 mps 751 mmHg 70%
20:00 +19°C° 0 mm 3 mps 751 mmHg 73%
21:00 +18°C° 0 mm 3 mps 752 mmHg 75%
22:00 +17°C° 0 mm 2 mps 752 mmHg 78%
23:00 +16°C° 0 mm 2 mps 752 mmHg 80%
Show more